Погода в Цзуньи

Китай     27°42′00″N   106°55′39″E
темп.,
°C
ветер,
м/с
пор.,
м/с
влажн.,
%
обл.,
%
осадки,
мм/ч
давл.,
гПа
погр.,
м
17 мая, пн
пн1723:00+18ссз2480100 0.0 1012124
02:00+17ссз2280100 0.1 101267
05:00+17ссв2283100 0.4 101261
08:00+17ссз1289100 0.9 1014122
11:00+17сз1388100 0.3 1015324
14:00+17ссз2380100 0.3 1013599
17:00+17всв2282100 0.0 1012493
20:00+16в119166 0.0 101237
18 мая, вт
вт1823:00+15в229453 0.0 101459
02:00+15юз2196100 0.9 101479
05:00+15в1196100 0.9 101353
08:00+15юв1191100 0.9 1013195
11:00+16вюв118999 0.1 1014272
14:00+17св1186100 0.1 1011324
17:00+18всв1281100 0.0 1009460
20:00+17вюв249097 0.1 1009158
19 мая, ср
ср1923:00+16вюв249791 2.0 1011239
02:00+15вюв1297100 4.2 1008218
05:00+15св1296100 1.4 1008121
08:00+15всв1196100 1.9 1009104
11:00+16с1193100 0.3 1010173
14:00+17з1187100 0.3 1009329
17:00+18зсз1284100 0.1 1008496
20:00+17сз1193100 0.6 100819
20 мая, чт
чт2023:00+16сз2194100 0.6 101035
02:00+16сз2296100 1.7 100957
05:00+15сз1196100 1.2 100818
08:00+16з119473 1.6 101083
11:00+19з128087 0.1 1010639
14:00+23ююз116792 0.3 10061179
17:00+22в116865 0.3 1005886
20:00+20всв1182100 0.4 100611
21 мая, пт
пт2123:00+18всв11877 0.0 100811
02:00+18св118928 0.0 100711
05:00+17вюв1192100 0.3 100613
08:00+18в1292100 0.6 1007150
11:00+19всв1289100 0.1 1007327
14:00+18всв1291100 0.3 1005245
17:00+19всв2390100 0.1 1003350
20:00+18всв2394100 0.2 1004112